Погода в Дмитриевке

Россия / Республика Алтай     52°26′04″N   86°55′20″E
темп.,
°C
ветер,
м/с
пор.,
м/с
влажн.,
%
обл.,
%
осадки,
мм/ч
давл.,
гПа
погр.,
м
28 ноября, вс
вс2801:00−6ю2878100 0.1 1038236
04:00−7ююв1290100 0.0 103753
07:00−7ю1391100 0.0 103768
10:00−6ю1293100 0.1 103786
13:00−3зюз41570100 0.1 10371271
16:00−3зюз41573100 0.0 10391316
19:00−5юз31283100 0.0 1040701
22:00−7ю1291100 0.0 104238
29 ноября, пн
пн2901:00−9юв119297 0.0 104210
04:00−10вюв118996 0.0 104210
07:00−10вюв118985 0.0 104111
10:00−9вюв1185100 0.0 104028
13:00−3юв1175100 0.0 1037170
16:00−4юв0091100 0.0 103510
19:00−9вюв1196100 0.0 103610
22:00−10вюв119693 0.0 103610
30 ноября, вт
вт3001:00−11вюв119627 0.0 103510
04:00−11юв119787 0.0 103412
07:00−11юв119797 0.0 103513
10:00−9юв1192100 0.0 103432
13:00−3ююв127593 0.0 1033129
16:00−4ююв118999 0.0 103210
19:00−9вюв119229 0.0 103410
22:00−10вюв219224 0.0 103411
1 декабря, ср
ср101:00−10вюв219413 0.0 103412
04:00−11юв219617 0.0 103414
07:00−11юв219515 0.0 103414
10:00−10юв22885 0.0 103431
13:00−2ююв12695 0.0 1032143
16:00−3юв11875 0.0 103110
19:00−10вюв21925 0.0 103111
22:00−10вюв22907 0.0 103113
2 декабря, чт
чт201:00−10юв229320 0.0 103015
04:00−11юв219616 0.0 102918
07:00−12юв21957 0.0 102916
10:00−10юв22865 0.0 102841
13:00−2ююв22660 0.0 1026123
16:00−3юв11855 0.0 102610
19:00−9вюв22885 0.0 102613
22:00−9юв22875 0.0 102518